Dewpoint
35 39 34 29 29 27 28 21 18 20 30 29 29 28 28 29 28 27 28 35 30 30 38 39 40 40 39 38 37 37 35 35 39 43 44 44 44 45 45 46 46 47 48 49
35 32 32 34 32 28 29 23 22 27 30 28 27 28 29 30 30 29 27 27 29 31 35 38 40 41 42 40 39 39 36 34 37 42 44 45 45 46 46 47 47 49 49 50
36 32 32 32 29 25 25 23 25 30 31 29 27 24 28 29 28 28 27 27 28 30 33 36 38 39 41 41 41 41 38 36 36 38 44 45 46 46 45 46 46 48 49 52
32 33 31 33 28 27 23 30 31 30 29 24 27 19 25 27 26 25 26 26 27 31 32 34 36 38 39 40 42 42 42 38 36 36 42 44 44 44 45 45 46 47 49 51
32 31 32 32 30 30 30 33 31 31 29 28 28 27 32 25 24 22 25 29 32 34 35 34 35 38 39 40 42 44 44 40 37 36 39 44 45 45 46 46 45 46 47 50
32 35 34 32 32 32 32 31 31 29 31 26 27 27 29 31 31 27 29 31 33 34 34 36 38 39 40 41 43 45 44 43 38 35 35 41 44 45 45 45 45 46 48 49
32 33 35 35 32 35 34 32 25 22 28 25 28 24 29 28 28 32 31 32 34 37 36 37 37 38 40 41 42 45 45 44 40 35 34 38 44 45 45 46 46 45 46 46
30 26 33 35 33 31 29 26 24 12 18 17 25 19 31 28 30 31 32 34 33 32 33 35 36 38 40 41 41 43 43 43 40 36 34 35 42 45 45 46 46 45 46 46
21 27 33 34 34 34 30 28 28 23 21 18 22 26 25 31 27 29 32 31 29 28 28 28 29 30 32 36 39 41 42 44 43 39 35 34 36 43 44 44 45 44 45 45
23 19 26 33 35 35 32 29 25 27 19 14 19 18 29 25 31 26 25 24 26 27 27 27 26 25 27 29 31 35 40 42 43 41 35 33 33 37 42 43 43 43 43 42
25 20 25 29 30 31 29 27 26 23 19 16 9 25 32 26 32 24 23 23 24 23 23 24 26 26 25 27 29 32 36 39 40 40 37 33 33 33 36 40 40 40 40 38
29 24 21 23 29 29 30 27 24 22 18 16 15 17 17 26 30 24 20 23 25 26 25 23 27 28 28 28 27 26 29 33 36 37 36 34 32 32 32 35 38 36 35 33
27 23 19 20 21 25 25 25 27 24 26 21 13 14 19 24 25 19 20 23 26 27 26 24 27 27 30 30 31 31 29 28 30 33 34 34 30 28 29 30 32 35 33 31
33 23 18 19 15 17 23 23 25 25 24 21 15 11 18 21 20 20 21 22 27 28 28 27 28 29 29 30 30 31 31 31 29 30 32 32 31 28 27 27 27 27 27 25
30 24 23 25 25 25 23 21 19 24 25 19 16 16 17 22 19 20 21 25 28 28 28 29 29 29 30 30 30 30 31 32 31 30 31 32 32 30 27 26 26 25 24 24
30 25 25 23 24 23 21 21 21 20 19 23 24 23 23 22 21 22 24 27 28 28 30 30 30 30 31 31 30 30 31 32 32 31 32 32 32 31 29 27 25 25 25 25
28 28 25 23 23 24 21 21 20 20 20 21 19 20 21 22 24 25 26 28 28 30 30 30 30 31 31 31 31 31 31 31 32 31 31 32 31 31 30 28 26 25 25 25
25 26 26 24 24 17 22 21 18 19 20 21 21 22 24 26 28 29 29 30 31 31 31 31 31 31 31 32 32 32 33 32 32 32 32 32 33 32 31 29 27 25 25 25
25 25 25 23 21 22 19 19 20 19 19 19 19 24 27 29 30 30 32 32 32 32 32 31 32 32 32 32 32 32 33 33 33 33 33 34 34 33 32 30 28 26 26 26
27 27 25 24 21 19 14 20 21 19 17 24 25 25 28 30 28 29 32 32 32 32 32 32 32 32 32 33 33 33 33 33 33 34 34 35 35 34 33 31 30 28 26 25
25 26 24 24 23 23 23 22 23 18 19 24 28 28 29 29 31 32 33 32 32 32 32 32 31 31 31 32 33 33 34 33 34 35 34 34 34 34 34 32 31 29 28 26
25 24 24 24 24 21 25 24 21 26 27 28 29 30 32 32 33 33 32 31 32 32 32 32 32 31 31 32 32 32 32 33 33 33 33 33 33 32 32 32 32 30 27 26
21 25 24 25 25 27 26 25 26 27 28 30 30 32 32 32 32 33 31 31 30 30 29 31 31 31 31 32 32 32 32 33 32 32 32 32 32 31 31 31 31 30 28 25
23 24 23 24 25 26 28 28 29 29 30 32 32 32 32 32 32 31 31 28 27 27 27 28 28 27 27 28 30 31 32 33 32 32 32 32 32 32 31 29 30 30 29 27
30 29 27 26 27 28 28 29 29 31 32 32 33 32 32 31 31 31 28 26 25 26 27 27 25 23 24 26 27 29 31 33 33 32 32 33 33 33 32 30 29 28 28 29
30 28 27 26 29 30 30 30 30 31 32 32 31 31 32 31 29 26 25 24 23 24 26 25 22 22 23 25 26 27 27 27 32 33 32 33 34 34 33 32 31 34 36 36
Lifted_Index
7 6 5 6 6 6 5 4 4 5 6 6 5 5 5 6 7 7 8 8 8 9 9 9 9 10 10 11 11 12 13 14 14 13 13 12 12 12 13 12 12 11 10 10
6 6 6 7 6 6 5 4 4 5 6 6 5 5 5 6 6 7 8 8 8 9 9 9 9 9 10 10 11 12 12 13 14 14 13 13 12 12 13 12 12 12 11 10
6 6 7 6 6 5 5 4 4 5 5 5 4 4 4 5 6 7 7 8 8 8 8 8 9 9 9 10 10 11 12 13 14 14 14 13 13 13 13 13 13 12 11 10
5 6 6 6 5 5 5 5 5 5 4 3 3 3 3 4 5 6 7 8 8 8 8 8 8 9 9 9 10 11 11 12 13 14 15 14 13 13 13 13 13 12 11 11
6 6 6 6 6 6 6 6 5 4 3 2 2 2 3 4 5 6 7 7 8 8 8 8 9 9 9 10 10 10 11 11 12 13 15 14 14 13 13 12 12 12 12 11
6 7 7 7 7 7 6 5 4 3 2 2 2 2 3 4 5 6 6 7 8 8 8 8 9 9 9 9 10 10 10 11 12 13 14 14 14 13 13 12 12 12 12 11
5 6 7 7 7 6 6 4 2 1 1 1 2 2 3 5 6 6 6 7 8 8 8 9 9 9 9 9 9 9 10 10 12 13 14 14 14 14 13 13 12 12 12 11
3 4 6 7 7 6 5 4 2 1 1 1 2 2 4 5 6 7 7 8 8 9 9 9 10 10 10 10 10 10 10 11 12 13 13 14 14 14 14 13 12 12 12 11
3 3 5 7 7 6 5 4 3 2 1 1 1 2 3 5 5 6 7 8 9 9 10 10 10 11 11 11 11 11 11 12 12 13 14 14 14 14 14 14 13 12 12 11
4 4 5 6 7 6 6 5 4 3 1 1 1 2 3 4 5 6 7 8 9 10 10 10 10 10 10 11 11 11 12 12 13 14 14 14 14 14 14 15 14 13 12 12
6 5 4 5 6 6 6 5 4 3 2 1 1 2 3 5 6 7 8 9 9 10 10 10 10 9 9 10 10 10 11 12 13 14 15 15 15 15 14 15 15 15 14 13
7 5 4 4 6 6 6 5 5 4 3 2 1 2 5 7 8 8 9 9 10 10 10 10 9 9 9 10 10 10 11 12 13 14 15 15 15 15 15 15 16 16 16 16
8 5 3 3 5 6 6 5 6 5 4 2 2 3 6 8 9 9 10 10 10 10 10 10 10 10 11 11 12 12 12 13 13 13 14 15 15 16 15 15 15 16 17 18
8 6 4 4 4 5 5 6 6 5 4 3 3 4 7 9 10 10 11 11 11 11 11 11 11 11 12 13 13 14 14 14 14 14 14 14 15 15 16 15 15 15 16 17
8 6 5 5 5 5 5 5 5 5 4 4 4 5 8 10 10 11 11 12 12 11 11 11 11 12 13 14 14 14 14 15 15 14 14 14 14 15 15 15 15 15 15 15
6 5 5 5 4 4 4 4 4 4 4 5 5 6 9 10 10 11 11 11 11 11 11 11 12 13 13 14 14 14 14 15 15 15 14 14 14 15 15 15 15 15 14 14
5 5 4 4 4 3 3 3 4 4 5 5 5 7 8 9 10 11 11 11 10 10 11 12 12 13 13 14 14 14 14 15 15 15 15 15 14 15 15 15 15 15 15 15
5 5 5 4 4 4 4 4 5 5 5 6 6 7 8 9 9 10 10 10 11 11 12 13 13 13 13 14 14 14 14 14 15 15 15 15 15 15 14 14 14 14 15 15
6 6 5 4 4 4 5 5 6 6 6 6 7 7 8 9 9 9 9 10 11 12 13 13 13 13 13 14 15 15 14 14 14 15 15 15 15 15 14 14 14 14 15 15
5 5 4 3 3 3 4 6 6 6 6 7 8 8 9 9 8 8 10 11 12 12 13 13 12 13 14 15 15 15 14 14 15 15 15 15 15 15 15 15 15 15 15 15
4 4 3 3 2 3 4 6 6 6 6 8 9 9 9 9 9 10 11 11 12 12 13 13 13 13 14 15 15 15 15 15 15 16 16 16 16 16 15 15 15 15 14 14
4 3 3 3 3 3 5 6 6 6 7 8 9 9 9 9 10 11 12 12 12 13 13 14 14 14 15 15 15 15 14 15 15 15 15 15 15 15 15 14 14 13 13 13
5 4 4 4 4 4 5 6 7 7 8 9 9 9 9 9 10 11 12 12 13 14 15 16 16 16 16 16 15 15 14 14 14 13 13 13 13 13 13 12 12 12 11 11
5 5 5 5 5 5 6 6 7 8 8 9 9 9 9 10 11 12 12 12 13 14 16 16 16 16 16 16 16 16 15 14 13 12 12 11 11 11 11 10 10 10 10 10
6 6 6 6 6 6 6 6 7 7 8 8 9 9 9 10 11 11 12 12 13 14 15 15 14 14 14 14 15 15 15 14 13 12 11 10 10 9 9 9 9 9 9 9
6 6 6 6 6 6 6 6 7 7 8 8 8 9 9 10 11 11 11 12 13 13 14 13 13 13 13 13 14 14 14 14 13 12 11 10 9 8 8 8 8 8 8 8